This is the latest recevied weather packets stored in our database for station/object KF7PIZ. If no packets are shown the sender has not sent any weather packets the latest 10 day(s).
| Time | Temp. | Humidity | Pressure | Rain* | Wind** | Luminosity | Snow |
|---|---|---|---|---|---|---|---|
| 1777599817 | 21.67° C | 22% | 1016 hPa | 0 mm | - | 25 W/m² | - |
| 1777599513 | 21.67° C | 21% | 1016.2 hPa | 0 mm | - | 29 W/m² | - |
| 1777599211 | 23.33° C | 21% | 1016.1 hPa | 0 mm | - | 32 W/m² | - |
| 1777598906 | 25.56° C | 19% | 1016 hPa | 0 mm | - | 40 W/m² | - |
| 1777598604 | 25.56° C | 19% | 1016 hPa | 0 mm | - | 50 W/m² | - |
| 1777598300 | 26.11° C | 18% | 1016.1 hPa | 0 mm | - | 61 W/m² | - |
| 1777597998 | 27.22° C | 18% | 1015.8 hPa | 0 mm | - | 150 W/m² | - |
| 1777597697 | 26.11° C | 19% | 1015.8 hPa | 0 mm | - | 174 W/m² | - |
| 1777597393 | 25.56° C | 20% | 1016.3 hPa | 0 mm | - | 183 W/m² | - |
| 1777597088 | 25° C | 18% | 1016.1 hPa | 0 mm | - | 113 W/m² | - |
| 1777596785 | 25.56° C | 19% | 1016 hPa | 0 mm | - | 105 W/m² | - |
| 1777596481 | 26.67° C | 20% | 1016.3 hPa | 0 mm | - | 253 W/m² | - |
| 1777596179 | 27.22° C | 17% | 1016.3 hPa | 0 mm | - | 259 W/m² | - |
| 1777595875 | 27.22° C | 18% | 1016.2 hPa | 0 mm | - | 139 W/m² | - |
| 1777595575 | 26.67° C | 19% | 1016.2 hPa | 0 mm | - | 194 W/m² | - |
| 1777595272 | 25.56° C | 19% | 1016 hPa | 0 mm | - | 255 W/m² | - |
| 1777594968 | 25° C | 19% | 1016.1 hPa | 0 mm | - | 224 W/m² | - |
| 1777594664 | 24.44° C | 19% | 1016.2 hPa | 0 mm | - | 197 W/m² | - |
| 1777594362 | 25.56° C | 20% | 1016 hPa | 0 mm | - | 83 W/m² | - |
| 1777594057 | 25° C | 19% | 1016.1 hPa | 0 mm | - | 150 W/m² | - |
| 1777593753 | 24.44° C | 19% | 1016.2 hPa | 0 mm | - | 59 W/m² | - |
| 1777593450 | 23.89° C | 17% | 1016.1 hPa | 0 mm | - | 77 W/m² | - |
| 1777593148 | 23.89° C | 17% | 1016 hPa | 0 mm | - | 198 W/m² | - |
| 1777592847 | 23.89° C | 18% | 1016.2 hPa | 0 mm | - | 184 W/m² | - |
| 1777592544 | 23.89° C | 18% | 1016.3 hPa | 0 mm | - | 108 W/m² | - |
* Rain latest hour (hover to see other rain measurements)
** Current wind speed in m/s (hover to see current wind gust speed)